Time,TemperatureF,DewpointF,PressureIn,WindDirection,WindDirectionDegrees,WindSpeedMPH,WindSpeedGustMPH,Humidity,HourlyPrecipIn,Conditions,Clouds,dailyrainin,SoftwareType,DateUTC
2014-04-19 00:01:00,34.1,29.2,30.31,South,181,0.0,0.0,82,0.00,,,0.00,Wunderground v.1.15,2014-04-19 04:01:00,
2014-04-19 00:02:00,34.0,29.1,30.31,South,180,0.0,0.0,82,0.00,,,0.00,Wunderground v.1.15,2014-04-19 04:02:00,
2014-04-19 00:03:00,33.9,29.3,30.31,South,181,0.0,0.0,83,0.00,,,0.00,Wunderground v.1.15,2014-04-19 04:03:00,
2014-04-19 00:04:00,33.9,29.3,30.31,South,180,0.0,0.0,83,0.00,,,0.00,Wunderground v.1.15,2014-04-19 04:04:00,
2014-04-19 00:07:00,33.7,29.1,30.31,South,181,0.0,0.0,83,0.00,,,0.00,Wunderground v.1.15,2014-04-19 04:07:00,
2014-04-19 00:09:00,33.6,29.0,30.31,South,180,0.0,0.0,83,0.00,,,0.00,Wunderground v.1.15,2014-04-19 04:09:00,
2014-04-19 00:10:00,33.6,29.0,30.31,South,181,0.0,0.0,83,0.00,,,0.00,Wunderground v.1.15,2014-04-19 04:10:00,
2014-04-19 00:12:00,33.5,28.9,30.31,South,181,0.0,0.0,83,0.00,,,0.00,Wunderground v.1.15,2014-04-19 04:12:00,
2014-04-19 00:13:00,33.6,28.7,30.31,South,179,0.0,0.0,82,0.00,,,0.00,Wunderground v.1.15,2014-04-19 04:13:00,
2014-04-19 00:14:00,33.6,28.7,30.31,South,179,0.0,0.0,82,0.00,,,0.00,Wunderground v.1.15,2014-04-19 04:14:00,
2014-04-19 00:16:00,33.7,29.1,30.31,South,180,0.0,0.0,83,0.00,,,0.00,Wunderground v.1.15,2014-04-19 04:16:00,
2014-04-19 00:20:00,33.6,29.3,30.31,South,181,0.0,0.0,84,0.00,,,0.00,Wunderground v.1.15,2014-04-19 04:20:00,
2014-04-19 00:21:00,33.6,29.0,30.31,South,181,0.0,0.0,83,0.00,,,0.00,Wunderground v.1.15,2014-04-19 04:21:00,
2014-04-19 00:22:00,33.5,28.9,30.31,South,179,0.0,0.0,83,0.00,,,0.00,Wunderground v.1.15,2014-04-19 04:22:00,
2014-04-19 00:25:00,33.3,29.0,30.30,South,181,0.0,0.0,84,0.00,,,0.00,Wunderground v.1.15,2014-04-19 04:25:00,
2014-04-19 00:26:00,33.2,28.9,30.30,South,180,0.0,0.0,84,0.00,,,0.00,Wunderground v.1.15,2014-04-19 04:26:00,
2014-04-19 00:28:00,33.1,28.8,30.30,South,181,0.0,0.0,84,0.00,,,0.00,Wunderground v.1.15,2014-04-19 04:28:00,
2014-04-19 00:30:00,33.0,29.0,30.30,South,180,0.0,0.0,85,0.00,,,0.00,Wunderground v.1.15,2014-04-19 04:30:00,
2014-04-19 00:32:00,32.9,28.9,30.30,South,179,0.0,0.0,85,0.00,,,0.00,Wunderground v.1.15,2014-04-19 04:32:00,
2014-04-19 00:33:00,32.8,28.8,30.31,South,180,0.0,0.0,85,0.00,,,0.00,Wunderground v.1.15,2014-04-19 04:33:00,
2014-04-19 00:35:00,32.8,28.8,30.30,South,180,0.0,0.0,85,0.00,,,0.00,Wunderground v.1.15,2014-04-19 04:35:00,
2014-04-19 00:36:00,32.8,28.5,30.30,South,180,0.0,0.0,84,0.00,,,0.00,Wunderground v.1.15,2014-04-19 04:36:00,
2014-04-19 00:41:00,32.7,28.7,30.30,South,181,0.0,0.0,85,0.00,,,0.00,Wunderground v.1.15,2014-04-19 04:41:00,
2014-04-19 00:43:00,32.6,28.6,30.30,South,180,0.0,0.0,85,0.00,,,0.00,Wunderground v.1.15,2014-04-19 04:43:00,
2014-04-19 00:44:00,32.5,28.5,30.30,South,180,0.0,0.0,85,0.00,,,0.00,Wunderground v.1.15,2014-04-19 04:44:00,
2014-04-19 00:49:00,32.3,28.6,30.30,South,180,0.0,0.0,86,0.00,,,0.00,Wunderground v.1.15,2014-04-19 04:49:00,
2014-04-19 00:50:00,32.3,28.6,30.30,South,180,0.0,0.0,86,0.00,,,0.00,Wunderground v.1.15,2014-04-19 04:50:00,
2014-04-19 00:51:00,32.2,28.5,30.30,South,181,0.0,0.0,86,0.00,,,0.00,Wunderground v.1.15,2014-04-19 04:51:00,
2014-04-19 00:52:00,32.2,28.5,30.30,South,180,0.0,0.0,86,0.00,,,0.00,Wunderground v.1.15,2014-04-19 04:52:00,
2014-04-19 00:54:00,32.1,28.4,30.29,South,181,0.0,0.0,86,0.00,,,0.00,Wunderground v.1.15,2014-04-19 04:54:00,
2014-04-19 00:56:00,32.0,28.3,30.29,South,180,1.0,1.0,86,0.00,,,0.00,Wunderground v.1.15,2014-04-19 04:56:00,
2014-04-19 00:58:00,32.0,28.6,30.29,South,180,0.0,1.0,87,0.00,,,0.00,Wunderground v.1.15,2014-04-19 04:58:00,
2014-04-19 01:01:00,31.9,28.5,30.29,South,180,0.0,0.0,87,0.00,,,0.00,Wunderground v.1.15,2014-04-19 05:01:00,
2014-04-19 01:04:00,32.0,28.6,30.29,South,180,0.0,0.0,87,0.00,,,0.00,Wunderground v.1.15,2014-04-19 05:04:00,
2014-04-19 01:06:00,31.9,28.5,30.29,South,179,0.0,0.0,87,0.00,,,0.00,Wunderground v.1.15,2014-04-19 05:06:00,
2014-04-19 01:08:00,31.9,28.5,30.29,South,179,0.0,0.0,87,0.00,,,0.00,Wunderground v.1.15,2014-04-19 05:08:00,
2014-04-19 01:09:00,31.9,28.5,30.29,South,181,0.0,0.0,87,0.00,,,0.00,Wunderground v.1.15,2014-04-19 05:09:00,
2014-04-19 01:12:00,31.8,28.4,30.28,South,180,1.0,1.0,87,0.00,,,0.00,Wunderground v.1.15,2014-04-19 05:12:00,